Regional Weather Roundup
Issued by NWS Cleveland, OH

Home | Current Version | Previous Version | Text Only | Print | Product List | Glossary Off
Versions: 1 2 3 4 5 6 7 8 9 10 11 12 13 14 15 16 17 18 19 20 21 22 23 24 25 26 27 28 29 30 31 32 33 34 35 36 37 38 39 40 41 42 43 44 45 46 47 48 49 50

000
ASUS41 KCLE 010910
RWRCLE
OHIO REGIONAL WEATHER ROUNDUP
NATIONAL WEATHER SERVICE WILMINGTON, OH
500 AM EDT TUE SEP 01 2015

NOTE: "FAIR" INDICATES FEW OR NO CLOUDS BELOW 12,000 FEET WITH NO
SIGNIFICANT WEATHER AND/OR OBSTRUCTIONS TO VISIBILITY.

OHZ001>008-015>018-024>027-034-035-043-044-011000-
   NORTHWEST OHIO

CITY           SKY/WX    TMP DP  RH WIND       PRES   REMARKS
DEFIANCE       PTCLDY    68  66  93 CALM      30.08S FOG
FINDLAY        CLEAR     69  66  90 S3        30.08S FOG
TOLEDO EXPRESS CLEAR     66  65  96 CALM      30.07S FOG
TOLEDO EXEC    CLEAR     69  65  86 CALM      30.08S FOG
LIMA           CLEAR     68  66  93 S5        30.10S FOG
$$

OHZ009>014-019>023-028>033-038-089-011000-
   NORTHEAST OHIO

CITY           SKY/WX    TMP DP  RH WIND       PRES   REMARKS
CLE-HOPKINS    CLEAR     70  66  87 S5        30.10S
CLE-LAKEFRONT  CLEAR     73  66  78 S6        30.06S
CUY CO. ARPT   NOT AVBL
LORAIN-ELYRIA  CLEAR     67  65  93 SW3       30.09S FOG
ASHTABULA      CLEAR     63  63 100 CALM      30.10S FOG
AKRON-CANTON   CLEAR     69  66  90 CALM      30.10F FOG
WOOSTER        FOG       63  61  93 CALM      30.11S VSB 1/4
MANSFIELD      CLEAR     68  67  96 SW3       30.11F
YOUNGSTOWN     PTCLDY    64  63  96 CALM      30.10F
$$

OHZ042-051>053-060>062-070>072-077>081-011000-
  SOUTHWEST OHIO

CITY           SKY/WX    TMP DP  RH WIND       PRES   REMARKS
CINC-COVINGTON CLEAR     66  64  93 CALM      30.12R
CINC-LUNKEN    CLEAR     65  65 100 CALM      30.12R FOG
HAMILTON       CLEAR     67  66  97 CALM      30.12R FOG
DAYTON         CLEAR     68  67  96 CALM      30.12S
WRIGHT-PAT AFB CLEAR     67  67  98 CALM      30.11S
DAYTON GENERAL CLEAR     68  65  90 CALM      30.11S
WILMINGTON     CLEAR     65  63  93 CALM      30.12S FOG
$$

OHZ036-037-039>041-045>050-054>059-063>069-073>076-082>088-011000-
  CENTRAL AND SOUTHEAST OHIO

CITY           SKY/WX    TMP DP  RH WIND       PRES   REMARKS
COLUMBUS       CLEAR     69  67  93 CALM      30.10R
OSU AIRPORT    CLEAR     68  66  93 CALM      30.10S FOG
BOLTON FIELD   CLEAR     65  65 100 CALM      30.11S FOG
RICKENBACK AFB   N/A     65  64  98 CALM      30.10S FOG
NEWARK         CLEAR     64  63  96 CALM      30.10S FOG
MARION         FOG       65  63  93 CALM      30.10F VSB 3/4
LANCASTER      FOG       63  61  93 CALM      30.11R VSB 1
ZANESVILLE     CLEAR     65  62  90 CALM      30.10  FOG
NEW PHILLY     MOCLDY    64  64 100 CALM      30.11S FOG
$$



USA.gov is the U.S. government's official web portal to all federal, state and local government web resources and services.